contact:dominique.lefevre@mio.osupytheas.fr, maurice.libes@osupytheas.fr, didier.mallarino@osupytheas.fr
Project:EMSO http://www.emso-fr.org/EMSO-France
Depth: 2436.0 m
Title:EMSO Ligure Ouest : Data MII capteur CSTAR
DateTime,Latitude,Longitude,Instrument_Serial,Reference_Counts,Signal_Counts,Corrected_Signal_raw_counts,Calculated_Beam_c_inverse_meters,Internal_thermistor_counts
DateTime,Latitude,Longitude,Instrument_Serial,Reference_Counts,Signal_Counts,Corrected_Signal_raw_counts,Calculated_Beam_c_inverse_meters,Internal_thermistor_counts
2022-11-30T00:01:19,42.805,6.029,CST-1368DR,4475,5106,12134,01.009,551
2022-11-30T00:04:20,42.805,6.029,CST-1368DR,4475,5106,12134,01.009,551
2022-11-30T00:07:22,42.805,6.029,CST-1368DR,4475,5107,12136,01.008,551
2022-11-30T00:10:23,42.805,6.029,CST-1368DR,4475,5106,12133,01.009,551
2022-11-30T00:13:25,42.805,6.029,CST-1368DR,4475,5107,12136,01.008,551
2022-11-30T00:16:27,42.805,6.029,CST-1368DR,4475,5107,12135,01.009,551
2022-11-30T00:19:28,42.805,6.029,CST-1368DR,4475,5107,12135,01.009,551
2022-11-30T00:22:30,42.805,6.029,CST-1368DR,4475,5107,12136,01.008,551
2022-11-30T00:25:31,42.805,6.029,CST-1368DR,4475,5106,12135,01.009,551
2022-11-30T00:28:33,42.805,6.029,CST-1368DR,4475,5106,12134,01.009,551
2022-11-30T00:31:35,42.805,6.029,CST-1368DR,4475,5106,12135,01.009,551
2022-11-30T00:34:36,42.805,6.029,CST-1368DR,4475,5107,12136,01.008,551
2022-11-30T00:37:38,42.805,6.029,CST-1368DR,4475,5106,12134,01.009,551
2022-11-30T00:40:39,42.805,6.029,CST-1368DR,4475,5106,12134,01.009,551
2022-11-30T00:43:41,42.805,6.029,CST-1368DR,4475,5107,12135,01.009,551
2022-11-30T00:46:42,42.805,6.029,CST-1368DR,4475,5106,12134,01.009,551
2022-11-30T00:49:44,42.805,6.029,CST-1368DR,4475,5106,12134,01.009,551
2022-11-30T00:52:46,42.805,6.029,CST-1368DR,4475,5106,12133,01.009,551
2022-11-30T00:55:47,42.805,6.029,CST-1368DR,4475,5105,12132,01.010,551
2022-11-30T00:58:49,42.805,6.029,CST-1368DR,4475,5106,12134,01.009,551
2022-11-30T01:01:50,42.805,6.029,CST-1368DR,4475,5107,12136,01.008,551
2022-11-30T01:04:52,42.805,6.029,CST-1368DR,4475,5107,12136,01.008,551
2022-11-30T01:07:53,42.805,6.029,CST-1368DR,4475,5107,12136,01.008,551
2022-11-30T01:10:55,42.805,6.029,CST-1368DR,4475,5107,12137,01.008,551
2022-11-30T01:13:57,42.805,6.029,CST-1368DR,4475,5107,12137,01.008,551
2022-11-30T01:16:58,42.805,6.029,CST-1368DR,4475,5108,12138,01.008,551
2022-11-30T01:20:00,42.805,6.029,CST-1368DR,4475,5107,12135,01.009,551
2022-11-30T01:23:01,42.805,6.029,CST-1368DR,4475,5107,12136,01.008,551
2022-11-30T01:26:03,42.805,6.029,CST-1368DR,4475,5105,12131,01.010,551
2022-11-30T01:29:04,42.805,6.029,CST-1368DR,4475,5108,12138,01.008,551
2022-11-30T01:32:06,42.805,6.029,CST-1368DR,4475,5107,12136,01.008,551
2022-11-30T01:35:08,42.805,6.029,CST-1368DR,4475,5105,12132,01.010,551
2022-11-30T01:38:09,42.805,6.029,CST-1368DR,4475,5105,12132,01.010,551
2022-11-30T01:41:11,42.805,6.029,CST-1368DR,4475,5106,12133,01.009,551
2022-11-30T01:44:12,42.805,6.029,CST-1368DR,4475,5107,12136,01.008,551
2022-11-30T01:47:14,42.805,6.029,CST-1368DR,4475,5106,12134,01.009,551
2022-11-30T01:50:15,42.805,6.029,CST-1368DR,4475,5106,12134,01.009,551
2022-11-30T01:53:17,42.805,6.029,CST-1368DR,4475,5106,12133,01.009,551
2022-11-30T01:56:19,42.805,6.029,CST-1368DR,4475,5106,12135,01.009,551
2022-11-30T01:59:20,42.805,6.029,CST-1368DR,4475,5106,12134,01.009,551
2022-11-30T02:02:22,42.805,6.029,CST-1368DR,4475,5107,12136,01.008,551
2022-11-30T02:05:23,42.805,6.029,CST-1368DR,4475,5107,12136,01.008,551
2022-11-30T02:08:25,42.805,6.029,CST-1368DR,4475,5107,12135,01.009,551
2022-11-30T02:11:26,42.805,6.029,CST-1368DR,4475,5106,12134,01.009,551
2022-11-30T02:14:28,42.805,6.029,CST-1368DR,4475,5105,12132,01.010,551
2022-11-30T02:17:30,42.805,6.029,CST-1368DR,4475,5107,12136,01.008,551
2022-11-30T02:20:31,42.805,6.029,CST-1368DR,4475,5106,12133,01.009,551
2022-11-30T02:23:33,42.805,6.029,CST-1368DR,4475,5106,12134,01.009,551
2022-11-30T02:26:34,42.805,6.029,CST-1368DR,4475,5105,12132,01.010,551
2022-11-30T02:29:36,42.805,6.029,CST-1368DR,4475,5107,12136,01.008,551
2022-11-30T02:32:37,42.805,6.029,CST-1368DR,4475,5106,12134,01.009,551
2022-11-30T02:35:39,42.805,6.029,CST-1368DR,4475,5106,12133,01.009,551
2022-11-30T02:38:41,42.805,6.029,CST-1368DR,4475,5106,12134,01.009,551
2022-11-30T02:41:42,42.805,6.029,CST-1368DR,4475,5106,12134,01.009,551
2022-11-30T02:44:44,42.805,6.029,CST-1368DR,4475,5107,12136,01.008,551
2022-11-30T02:47:45,42.805,6.029,CST-1368DR,4475,5107,12135,01.009,551
2022-11-30T02:50:47,42.805,6.029,CST-1368DR,4475,5106,12134,01.009,551
2022-11-30T02:53:49,42.805,6.029,CST-1368DR,4475,5106,12134,01.009,551
2022-11-30T02:56:50,42.805,6.029,CST-1368DR,4475,5106,12135,01.009,551
2022-11-30T02:59:52,42.805,6.029,CST-1368DR,4475,5107,12135,01.009,551
2022-11-30T03:02:53,42.805,6.029,CST-1368DR,4475,5106,12134,01.009,551
2022-11-30T03:05:55,42.805,6.029,CST-1368DR,4475,5106,12133,01.009,551
2022-11-30T03:08:56,42.805,6.029,CST-1368DR,4475,5106,12135,01.009,551
2022-11-30T03:11:58,42.805,6.029,CST-1368DR,4475,5106,12133,01.009,551
2022-11-30T03:15:00,42.805,6.029,CST-1368DR,4475,5107,12137,01.008,551
2022-11-30T03:18:01,42.805,6.029,CST-1368DR,4475,5106,12135,01.009,551
2022-11-30T03:21:03,42.805,6.029,CST-1368DR,4475,5105,12132,01.010,551
2022-11-30T03:24:04,42.805,6.029,CST-1368DR,4475,5106,12135,01.009,551
2022-11-30T03:27:06,42.805,6.029,CST-1368DR,4475,5105,12131,01.010,551
2022-11-30T03:30:08,42.805,6.029,CST-1368DR,4475,5107,12135,01.009,551
2022-11-30T03:33:09,42.805,6.029,CST-1368DR,4475,5107,12136,01.008,551
2022-11-30T03:36:11,42.805,6.029,CST-1368DR,4475,5107,12136,01.008,551
2022-11-30T03:39:12,42.805,6.029,CST-1368DR,4475,5107,12135,01.009,551
2022-11-30T03:42:14,42.805,6.029,CST-1368DR,4475,5107,12135,01.009,551
2022-11-30T03:45:15,42.805,6.029,CST-1368DR,4475,5106,12133,01.009,551
2022-11-30T03:48:17,42.805,6.029,CST-1368DR,4475,5107,12136,01.008,551
2022-11-30T03:51:19,42.805,6.029,CST-1368DR,4475,5107,12136,01.008,551
2022-11-30T03:54:20,42.805,6.029,CST-1368DR,4475,5107,12136,01.008,551
2022-11-30T03:57:22,42.805,6.029,CST-1368DR,4474,5107,12140,01.007,551
2022-11-30T04:00:23,42.805,6.029,CST-1368DR,4475,5106,12135,01.009,551
2022-11-30T04:03:25,42.805,6.029,CST-1368DR,4475,5106,12134,01.009,551
2022-11-30T04:06:26,42.805,6.029,CST-1368DR,4475,5107,12137,01.008,551
2022-11-30T04:09:28,42.805,6.029,CST-1368DR,4474,5107,12138,01.008,551
2022-11-30T04:12:30,42.805,6.029,CST-1368DR,4474,5107,12139,01.007,551
2022-11-30T04:15:31,42.805,6.029,CST-1368DR,4475,5107,12135,01.009,551
2022-11-30T04:18:33,42.805,6.029,CST-1368DR,4474,5106,12137,01.008,551
2022-11-30T04:21:34,42.805,6.029,CST-1368DR,4475,5107,12136,01.008,551
2022-11-30T04:24:36,42.805,6.029,CST-1368DR,4475,5107,12137,01.008,551
2022-11-30T04:27:37,42.805,6.029,CST-1368DR,4475,5107,12136,01.008,551
2022-11-30T04:30:39,42.805,6.029,CST-1368DR,4474,5106,12137,01.008,551
2022-11-30T04:33:41,42.805,6.029,CST-1368DR,4475,5107,12135,01.009,551
2022-11-30T04:36:42,42.805,6.029,CST-1368DR,4475,5107,12136,01.008,551
2022-11-30T04:39:44,42.805,6.029,CST-1368DR,4475,5107,12137,01.008,551
2022-11-30T04:42:45,42.805,6.029,CST-1368DR,4474,5108,12140,01.007,551
2022-11-30T04:45:47,42.805,6.029,CST-1368DR,4474,5109,12143,01.006,551
2022-11-30T04:48:48,42.805,6.029,CST-1368DR,4474,5107,12140,01.007,551
2022-11-30T04:51:50,42.805,6.029,CST-1368DR,4474,5107,12139,01.007,551
2022-11-30T04:54:52,42.805,6.029,CST-1368DR,4474,5108,12141,01.007,551
2022-11-30T04:57:53,42.805,6.029,CST-1368DR,4474,5108,12140,01.007,551
2022-11-30T05:00:55,42.805,6.029,CST-1368DR,4474,5106,12137,01.008,551
2022-11-30T05:03:56,42.805,6.029,CST-1368DR,4474,5108,12140,01.007,551
2022-11-30T05:06:58,42.805,6.029,CST-1368DR,4475,5108,12138,01.008,551
2022-11-30T05:10:00,42.805,6.029,CST-1368DR,4475,5108,12138,01.008,551
2022-11-30T05:13:01,42.805,6.029,CST-1368DR,4475,5108,12138,01.008,551
2022-11-30T05:16:03,42.805,6.029,CST-1368DR,4475,5108,12138,01.008,551
2022-11-30T05:19:04,42.805,6.029,CST-1368DR,4475,5108,12138,01.008,551
2022-11-30T05:22:06,42.805,6.029,CST-1368DR,4475,5108,12138,01.008,551
2022-11-30T05:25:07,42.805,6.029,CST-1368DR,4475,5107,12136,01.008,551
2022-11-30T05:28:09,42.805,6.029,CST-1368DR,4475,5108,12138,01.008,551
2022-11-30T05:31:11,42.805,6.029,CST-1368DR,4475,5107,12136,01.008,551
2022-11-30T05:34:12,42.805,6.029,CST-1368DR,4475,5107,12137,01.008,551
2022-11-30T05:37:14,42.805,6.029,CST-1368DR,4475,5107,12136,01.008,551
2022-11-30T05:40:15,42.805,6.029,CST-1368DR,4475,5108,12138,01.008,551
2022-11-30T05:43:17,42.805,6.029,CST-1368DR,4474,5108,12142,01.007,551
2022-11-30T05:46:18,42.805,6.029,CST-1368DR,4475,5106,12135,01.009,551
2022-11-30T05:49:20,42.805,6.029,CST-1368DR,4475,5107,12136,01.008,551
2022-11-30T05:52:22,42.805,6.029,CST-1368DR,4475,5107,12137,01.008,551
2022-11-30T05:55:23,42.805,6.029,CST-1368DR,4474,5107,12138,01.008,551
2022-11-30T05:58:25,42.805,6.029,CST-1368DR,4474,5107,12140,01.007,551
2022-11-30T06:01:26,42.805,6.029,CST-1368DR,4474,5108,12141,01.007,551
2022-11-30T06:04:28,42.805,6.029,CST-1368DR,4474,5108,12141,01.007,551
2022-11-30T06:07:29,42.805,6.029,CST-1368DR,4474,5108,12141,01.007,551
2022-11-30T06:10:31,42.805,6.029,CST-1368DR,4474,5106,12137,01.008,551
2022-11-30T06:13:33,42.805,6.029,CST-1368DR,4474,5108,12140,01.007,551
2022-11-30T06:16:34,42.805,6.029,CST-1368DR,4474,5107,12138,01.008,551
2022-11-30T06:19:36,42.805,6.029,CST-1368DR,4474,5108,12141,01.007,551
2022-11-30T06:22:37,42.805,6.029,CST-1368DR,4474,5106,12135,01.009,551
2022-11-30T06:25:39,42.805,6.029,CST-1368DR,4474,5108,12140,01.007,551
2022-11-30T06:28:41,42.805,6.029,CST-1368DR,4474,5107,12139,01.007,551
2022-11-30T06:31:42,42.805,6.029,CST-1368DR,4474,5107,12138,01.008,551
2022-11-30T06:34:44,42.805,6.029,CST-1368DR,4474,5107,12140,01.007,551
2022-11-30T06:37:45,42.805,6.029,CST-1368DR,4474,5109,12143,01.006,551
2022-11-30T06:40:47,42.805,6.029,CST-1368DR,4474,5109,12143,01.006,551
2022-11-30T06:43:48,42.805,6.029,CST-1368DR,4474,5109,12143,01.006,551
2022-11-30T06:46:50,42.805,6.029,CST-1368DR,4474,5108,12141,01.007,551
2022-11-30T06:49:52,42.805,6.029,CST-1368DR,4474,5107,12140,01.007,551
2022-11-30T06:52:53,42.805,6.029,CST-1368DR,4474,5107,12139,01.007,551
2022-11-30T06:55:55,42.805,6.029,CST-1368DR,4474,5109,12144,01.006,551
2022-11-30T06:58:56,42.805,6.029,CST-1368DR,4474,5110,12146,01.005,551
2022-11-30T07:01:58,42.805,6.029,CST-1368DR,4474,5109,12144,01.006,551
2022-11-30T07:04:59,42.805,6.029,CST-1368DR,4474,5108,12141,01.007,551
2022-11-30T07:08:01,42.805,6.029,CST-1368DR,4474,5107,12140,01.007,551
2022-11-30T07:11:03,42.805,6.029,CST-1368DR,4474,5109,12143,01.006,551
2022-11-30T07:14:04,42.805,6.029,CST-1368DR,4474,5109,12144,01.006,551
2022-11-30T07:17:06,42.805,6.029,CST-1368DR,4474,5109,12143,01.006,551
2022-11-30T07:20:07,42.805,6.029,CST-1368DR,4474,5108,12140,01.007,551
2022-11-30T07:23:09,42.805,6.029,CST-1368DR,4474,5107,12138,01.008,551
2022-11-30T07:26:10,42.805,6.029,CST-1368DR,4474,5108,12142,01.007,551
2022-11-30T07:29:12,42.805,6.029,CST-1368DR,4474,5108,12141,01.007,551
2022-11-30T07:32:14,42.805,6.029,CST-1368DR,4474,5109,12143,01.006,551
2022-11-30T07:35:15,42.805,6.029,CST-1368DR,4474,5108,12142,01.007,551
2022-11-30T07:38:17,42.805,6.029,CST-1368DR,4474,5107,12138,01.008,551
2022-11-30T07:41:18,42.805,6.029,CST-1368DR,4474,5107,12140,01.007,551
2022-11-30T07:44:20,42.805,6.029,CST-1368DR,4474,5107,12138,01.008,551
2022-11-30T07:47:21,42.805,6.029,CST-1368DR,4474,5108,12142,01.007,551
2022-11-30T07:50:23,42.805,6.029,CST-1368DR,4474,5109,12143,01.006,551
2022-11-30T07:53:25,42.805,6.029,CST-1368DR,4474,5108,12140,01.007,551
2022-11-30T07:56:26,42.805,6.029,CST-1368DR,4474,5108,12140,01.007,551
2022-11-30T07:59:28,42.805,6.029,CST-1368DR,4474,5107,12140,01.007,551
2022-11-30T08:02:29,42.805,6.029,CST-1368DR,4474,5108,12141,01.007,551
2022-11-30T08:05:31,42.805,6.029,CST-1368DR,4474,5108,12141,01.007,551
2022-11-30T08:08:33,42.805,6.029,CST-1368DR,4474,5108,12141,01.007,551
2022-11-30T08:11:34,42.805,6.029,CST-1368DR,4474,5105,12133,01.009,551
2022-11-30T08:14:36,42.805,6.029,CST-1368DR,4474,5107,12138,01.008,551
2022-11-30T08:17:37,42.805,6.029,CST-1368DR,4474,5107,12139,01.007,551
2022-11-30T08:20:39,42.805,6.029,CST-1368DR,4474,5108,12141,01.007,551
2022-11-30T08:23:40,42.805,6.029,CST-1368DR,4474,5109,12143,01.006,551
2022-11-30T08:26:42,42.805,6.029,CST-1368DR,4474,5107,12140,01.007,551
2022-11-30T08:29:44,42.805,6.029,CST-1368DR,4474,5108,12141,01.007,551
2022-11-30T08:32:45,42.805,6.029,CST-1368DR,4474,5107,12139,01.007,551
2022-11-30T08:35:47,42.805,6.029,CST-1368DR,4474,5108,12141,01.007,551
2022-11-30T08:38:48,42.805,6.029,CST-1368DR,4474,5108,12140,01.007,551
2022-11-30T08:41:50,42.805,6.029,CST-1368DR,4474,5108,12141,01.007,551
2022-11-30T08:44:51,42.805,6.029,CST-1368DR,4474,5108,12141,01.007,551
2022-11-30T08:47:53,42.805,6.029,CST-1368DR,4474,5108,12140,01.007,551
2022-11-30T08:50:55,42.805,6.029,CST-1368DR,4474,5108,12140,01.007,551
2022-11-30T08:53:56,42.805,6.029,CST-1368DR,4474,5109,12143,01.006,551
2022-11-30T08:56:58,42.805,6.029,CST-1368DR,4474,5108,12141,01.007,551
2022-11-30T08:59:59,42.805,6.029,CST-1368DR,4474,5108,12141,01.007,551
2022-11-30T09:03:01,42.805,6.029,CST-1368DR,4474,5108,12142,01.007,551
2022-11-30T09:06:02,42.805,6.029,CST-1368DR,4474,5108,12141,01.007,551
2022-11-30T09:09:04,42.805,6.029,CST-1368DR,4474,5108,12141,01.007,551
2022-11-30T09:12:06,42.805,6.029,CST-1368DR,4474,5108,12141,01.007,551
2022-11-30T09:15:07,42.805,6.029,CST-1368DR,4474,5108,12142,01.007,551
2022-11-30T09:18:09,42.805,6.029,CST-1368DR,4474,5108,12142,01.007,551
2022-11-30T09:21:10,42.805,6.029,CST-1368DR,4474,5108,12141,01.007,551
2022-11-30T09:24:12,42.805,6.029,CST-1368DR,4474,5108,12141,01.007,551
2022-11-30T09:27:14,42.805,6.029,CST-1368DR,4474,5107,12139,01.007,551
2022-11-30T09:30:15,42.805,6.029,CST-1368DR,4474,5108,12141,01.007,551
2022-11-30T09:33:17,42.805,6.029,CST-1368DR,4474,5108,12141,01.007,551
2022-11-30T09:36:18,42.805,6.029,CST-1368DR,4474,5108,12140,01.007,551
2022-11-30T09:39:20,42.805,6.029,CST-1368DR,4474,5108,12140,01.007,551
2022-11-30T09:42:21,42.805,6.029,CST-1368DR,4474,5108,12140,01.007,551
2022-11-30T09:45:23,42.805,6.029,CST-1368DR,4474,5108,12141,01.007,551
2022-11-30T09:48:25,42.805,6.029,CST-1368DR,4474,5108,12141,01.007,551
2022-11-30T09:51:26,42.805,6.029,CST-1368DR,4474,5107,12139,01.007,551
2022-11-30T09:54:28,42.805,6.029,CST-1368DR,4474,5108,12141,01.007,551
2022-11-30T09:57:29,42.805,6.029,CST-1368DR,4474,5108,12140,01.007,551
2022-11-30T10:00:31,42.805,6.029,CST-1368DR,4474,5108,12141,01.007,551
2022-11-30T10:03:32,42.805,6.029,CST-1368DR,4474,5108,12140,01.007,551
2022-11-30T10:06:34,42.805,6.029,CST-1368DR,4474,5108,12141,01.007,551
2022-11-30T10:09:36,42.805,6.029,CST-1368DR,4474,5108,12141,01.007,551
2022-11-30T10:12:37,42.805,6.029,CST-1368DR,4474,5108,12141,01.007,551
2022-11-30T10:15:39,42.805,6.029,CST-1368DR,4474,5108,12142,01.007,551
2022-11-30T10:18:40,42.805,6.029,CST-1368DR,4474,5106,12137,01.008,551
2022-11-30T10:21:42,42.805,6.029,CST-1368DR,4474,5108,12141,01.007,551
2022-11-30T10:24:43,42.805,6.029,CST-1368DR,4474,5108,12142,01.007,551
2022-11-30T10:27:45,42.805,6.029,CST-1368DR,4474,5108,12142,01.007,551
2022-11-30T10:30:47,42.805,6.029,CST-1368DR,4474,5109,12143,01.006,551
2022-11-30T10:33:48,42.805,6.029,CST-1368DR,4474,5109,12143,01.006,551
2022-11-30T10:36:50,42.805,6.029,CST-1368DR,4474,5108,12142,01.007,551
2022-11-30T10:39:51,42.805,6.029,CST-1368DR,4474,5108,12141,01.007,551
2022-11-30T10:42:53,42.805,6.029,CST-1368DR,4474,5108,12142,01.007,551
2022-11-30T10:45:55,42.805,6.029,CST-1368DR,4474,5108,12141,01.007,551
2022-11-30T10:48:56,42.805,6.029,CST-1368DR,4474,5108,12141,01.007,551
2022-11-30T10:51:58,42.805,6.029,CST-1368DR,4474,5108,12142,01.007,551
2022-11-30T10:54:59,42.805,6.029,CST-1368DR,4474,5108,12142,01.007,551
2022-11-30T10:58:01,42.805,6.029,CST-1368DR,4474,5108,12141,01.007,551
2022-11-30T11:01:02,42.805,6.029,CST-1368DR,4474,5107,12138,01.008,551
2022-11-30T11:04:04,42.805,6.029,CST-1368DR,4474,5108,12142,01.007,551
2022-11-30T11:07:06,42.805,6.029,CST-1368DR,4474,5109,12143,01.006,551
2022-11-30T11:10:07,42.805,6.029,CST-1368DR,4474,5109,12143,01.006,551
2022-11-30T11:13:09,42.805,6.029,CST-1368DR,4474,5108,12142,01.007,551
2022-11-30T11:16:10,42.805,6.029,CST-1368DR,4474,5107,12140,01.007,551
2022-11-30T11:19:12,42.805,6.029,CST-1368DR,4474,5108,12140,01.007,551
2022-11-30T11:22:13,42.805,6.029,CST-1368DR,4474,5108,12140,01.007,551
2022-11-30T11:25:15,42.805,6.029,CST-1368DR,4474,5109,12143,01.006,551
2022-11-30T11:28:17,42.805,6.029,CST-1368DR,4474,5108,12141,01.007,551
2022-11-30T11:31:18,42.805,6.029,CST-1368DR,4474,5106,12137,01.008,551
2022-11-30T11:34:20,42.805,6.029,CST-1368DR,4474,5107,12140,01.007,551
2022-11-30T11:37:21,42.805,6.029,CST-1368DR,4474,5108,12141,01.007,551
2022-11-30T11:40:23,42.805,6.029,CST-1368DR,4474,5108,12140,01.007,551
2022-11-30T11:43:24,42.805,6.029,CST-1368DR,4474,5108,12141,01.007,551
2022-11-30T11:46:26,42.805,6.029,CST-1368DR,4474,5108,12140,01.007,551
2022-11-30T11:49:28,42.805,6.029,CST-1368DR,4474,5107,12138,01.008,551
2022-11-30T11:52:29,42.805,6.029,CST-1368DR,4474,5108,12141,01.007,551
2022-11-30T11:55:31,42.805,6.029,CST-1368DR,4474,5108,12142,01.007,551
2022-11-30T11:58:32,42.805,6.029,CST-1368DR,4474,5108,12141,01.007,551
2022-11-30T12:01:34,42.805,6.029,CST-1368DR,4474,5107,12140,01.007,551
2022-11-30T12:04:35,42.805,6.029,CST-1368DR,4474,5108,12141,01.007,551
2022-11-30T12:07:37,42.805,6.029,CST-1368DR,4474,5108,12140,01.007,551
2022-11-30T12:10:39,42.805,6.029,CST-1368DR,4474,5108,12140,01.007,551
2022-11-30T12:13:40,42.805,6.029,CST-1368DR,4474,5108,12140,01.007,551
2022-11-30T12:16:42,42.805,6.029,CST-1368DR,4474,5107,12138,01.008,551
2022-11-30T12:19:43,42.805,6.029,CST-1368DR,4474,5108,12141,01.007,551
2022-11-30T12:22:45,42.805,6.029,CST-1368DR,4474,5110,12145,01.006,551
2022-11-30T12:25:47,42.805,6.029,CST-1368DR,4474,5109,12143,01.006,551
2022-11-30T12:28:48,42.805,6.029,CST-1368DR,4474,5108,12142,01.007,551
2022-11-30T12:31:50,42.805,6.029,CST-1368DR,4474,5108,12141,01.007,551
2022-11-30T12:34:51,42.805,6.029,CST-1368DR,4474,5108,12142,01.007,551
2022-11-30T12:37:53,42.805,6.029,CST-1368DR,4474,5107,12140,01.007,551
2022-11-30T12:40:54,42.805,6.029,CST-1368DR,4474,5108,12141,01.007,551
2022-11-30T12:43:56,42.805,6.029,CST-1368DR,4474,5108,12142,01.007,551
2022-11-30T12:46:58,42.805,6.029,CST-1368DR,4474,5108,12142,01.007,551
2022-11-30T12:49:59,42.805,6.029,CST-1368DR,4474,5108,12141,01.007,551
2022-11-30T12:53:01,42.805,6.029,CST-1368DR,4474,5108,12141,01.007,551
2022-11-30T12:56:02,42.805,6.029,CST-1368DR,4474,5107,12140,01.007,551
2022-11-30T12:59:04,42.805,6.029,CST-1368DR,4474,5108,12140,01.007,551
2022-11-30T13:02:06,42.805,6.029,CST-1368DR,4474,5107,12140,01.007,551
2022-11-30T13:05:07,42.805,6.029,CST-1368DR,4474,5107,12139,01.007,551
2022-11-30T13:08:09,42.805,6.029,CST-1368DR,4474,5108,12140,01.007,551
2022-11-30T13:11:10,42.805,6.029,CST-1368DR,4474,5107,12140,01.007,551
2022-11-30T13:14:12,42.805,6.029,CST-1368DR,4474,5107,12139,01.007,551
2022-11-30T13:17:13,42.805,6.029,CST-1368DR,4474,5107,12138,01.008,551
2022-11-30T13:20:15,42.805,6.029,CST-1368DR,4474,5108,12141,01.007,551
2022-11-30T13:23:17,42.805,6.029,CST-1368DR,4474,5108,12141,01.007,551
2022-11-30T13:26:18,42.805,6.029,CST-1368DR,4474,5106,12137,01.008,551
2022-11-30T13:29:20,42.805,6.029,CST-1368DR,4474,5107,12139,01.007,551
2022-11-30T13:32:21,42.805,6.029,CST-1368DR,4474,5107,12139,01.007,551
2022-11-30T13:35:23,42.805,6.029,CST-1368DR,4474,5107,12140,01.007,551
2022-11-30T13:38:24,42.805,6.029,CST-1368DR,4474,5108,12142,01.007,551
2022-11-30T13:41:26,42.805,6.029,CST-1368DR,4474,5107,12140,01.007,551
2022-11-30T13:44:28,42.805,6.029,CST-1368DR,4474,5108,12140,01.007,551
2022-11-30T13:47:29,42.805,6.029,CST-1368DR,4474,5106,12137,01.008,551
2022-11-30T13:50:31,42.805,6.029,CST-1368DR,4474,5107,12138,01.008,551
2022-11-30T13:53:32,42.805,6.029,CST-1368DR,4474,5107,12139,01.007,551
2022-11-30T13:56:34,42.805,6.029,CST-1368DR,4474,5107,12140,01.007,551
2022-11-30T13:59:35,42.805,6.029,CST-1368DR,4474,5107,12139,01.007,551
2022-11-30T14:02:37,42.805,6.029,CST-1368DR,4474,5107,12138,01.008,551
2022-11-30T14:05:39,42.805,6.029,CST-1368DR,4474,5108,12141,01.007,551
2022-11-30T14:08:40,42.805,6.029,CST-1368DR,4474,5107,12138,01.008,551
2022-11-30T14:11:42,42.805,6.029,CST-1368DR,4474,5107,12139,01.007,551
2022-11-30T14:14:43,42.805,6.029,CST-1368DR,4474,5107,12140,01.007,551
2022-11-30T14:17:45,42.805,6.029,CST-1368DR,4474,5110,12145,01.006,551
2022-11-30T14:20:47,42.805,6.029,CST-1368DR,4474,5107,12140,01.007,551
2022-11-30T14:23:48,42.805,6.029,CST-1368DR,4474,5107,12138,01.008,551
2022-11-30T14:26:50,42.805,6.029,CST-1368DR,4474,5108,12142,01.007,551
2022-11-30T14:29:51,42.805,6.029,CST-1368DR,4474,5109,12143,01.006,551
2022-11-30T14:32:53,42.805,6.029,CST-1368DR,4474,5108,12140,01.007,551
2022-11-30T14:35:54,42.805,6.029,CST-1368DR,4474,5107,12139,01.007,551
2022-11-30T14:38:56,42.805,6.029,CST-1368DR,4474,5108,12141,01.007,551
2022-11-30T14:41:58,42.805,6.029,CST-1368DR,4474,5107,12139,01.007,551
2022-11-30T14:44:59,42.805,6.029,CST-1368DR,4474,5107,12139,01.007,551
2022-11-30T14:48:01,42.805,6.029,CST-1368DR,4474,5110,12145,01.006,551
2022-11-30T14:51:02,42.805,6.029,CST-1368DR,4474,5108,12140,01.007,551
2022-11-30T14:54:04,42.805,6.029,CST-1368DR,4474,5108,12142,01.007,551
2022-11-30T14:57:05,42.805,6.029,CST-1368DR,4474,5107,12140,01.007,551
2022-11-30T15:00:07,42.805,6.029,CST-1368DR,4474,5107,12139,01.007,551
2022-11-30T15:03:09,42.805,6.029,CST-1368DR,4474,5107,12140,01.007,551
2022-11-30T15:06:10,42.805,6.029,CST-1368DR,4474,5107,12139,01.007,551
2022-11-30T15:09:12,42.805,6.029,CST-1368DR,4474,5109,12144,01.006,551
2022-11-30T15:12:13,42.805,6.029,CST-1368DR,4474,5108,12141,01.007,551
2022-11-30T15:15:15,42.805,6.029,CST-1368DR,4474,5107,12139,01.007,551
2022-11-30T15:18:17,42.805,6.029,CST-1368DR,4474,5107,12139,01.007,551
2022-11-30T15:21:18,42.805,6.029,CST-1368DR,4474,5108,12141,01.007,551
2022-11-30T15:24:20,42.805,6.029,CST-1368DR,4474,5108,12141,01.007,551
2022-11-30T15:27:21,42.805,6.029,CST-1368DR,4474,5108,12141,01.007,551
2022-11-30T15:30:23,42.805,6.029,CST-1368DR,4474,5109,12143,01.006,551
2022-11-30T15:33:24,42.805,6.029,CST-1368DR,4474,5108,12140,01.007,551
2022-11-30T15:36:26,42.805,6.029,CST-1368DR,4474,5107,12139,01.007,551
2022-11-30T15:39:28,42.805,6.029,CST-1368DR,4474,5108,12141,01.007,551
2022-11-30T15:42:29,42.805,6.029,CST-1368DR,4474,5110,12145,01.006,551
2022-11-30T15:45:31,42.805,6.029,CST-1368DR,4474,5108,12142,01.007,551
2022-11-30T15:48:32,42.805,6.029,CST-1368DR,4474,5108,12142,01.007,551
2022-11-30T15:51:34,42.805,6.029,CST-1368DR,4474,5107,12138,01.008,551
2022-11-30T15:54:35,42.805,6.029,CST-1368DR,4474,5108,12140,01.007,551
2022-11-30T15:57:37,42.805,6.029,CST-1368DR,4474,5107,12139,01.007,551
2022-11-30T16:00:39,42.805,6.029,CST-1368DR,4474,5108,12141,01.007,551
2022-11-30T16:03:40,42.805,6.029,CST-1368DR,4474,5109,12143,01.006,551
2022-11-30T16:06:42,42.805,6.029,CST-1368DR,4474,5108,12141,01.007,551
2022-11-30T16:09:43,42.805,6.029,CST-1368DR,4474,5107,12138,01.008,551
2022-11-30T16:12:45,42.805,6.029,CST-1368DR,4474,5107,12139,01.007,551
2022-11-30T16:15:46,42.805,6.029,CST-1368DR,4474,5107,12139,01.007,551
2022-11-30T16:18:48,42.805,6.029,CST-1368DR,4474,5108,12140,01.007,551
2022-11-30T16:21:50,42.805,6.029,CST-1368DR,4474,5106,12137,01.008,551
2022-11-30T16:24:51,42.805,6.029,CST-1368DR,4474,5106,12137,01.008,551
2022-11-30T16:27:53,42.805,6.029,CST-1368DR,4474,5107,12140,01.007,551
2022-11-30T16:30:54,42.805,6.029,CST-1368DR,4474,5107,12140,01.007,551
2022-11-30T16:33:56,42.805,6.029,CST-1368DR,4474,5107,12138,01.008,551
2022-11-30T16:36:58,42.805,6.029,CST-1368DR,4474,5108,12141,01.007,551